User: anonymous   Login
Location: Peebles
(55.6412°N, 3.1714°W)
Time: 09:14:42
(UTC+01:00)
Language:

ATHENA - Orbit

View from above orbital plane
View from above orbital plane
View from above satellite
View from above satellite

Ground track
Ground track

The orbit data is extracted from the following two-line orbital elements,

1 46275U 20061D   22176.92678405  .00002050  00000-0  10551-3 0  9994
2 46275  97.3910 247.2578 0002827 110.8843 249.2694 15.17521445100141
Epoch (UTC): 25 June 2022 22:14:34
Eccentricity: 0.0002827
inclination: 97.3910°
perigee height: 511 km
apogee height: 515 km
right ascension of ascending node: 247.2578°
argument of perigee: 110.8843°
revolutions per day: 15.17521445
mean anomaly at epoch: 249.2694°
orbit number at epoch: 10014

The dashed part of the orbit path shows where the satellite is in the earth's shadow,  

DLR